Home   Weather   Durham   Past weeks

Flag for United Kingdom Past Weather in Durham, England, United Kingdom — Yesterday and Last 2 Weeks

Now
41 °F

Fog.


Feels Like: 39 °F
Forecast: N/A
Wind: 3 mph from North

Location: Newcastle

Current Time: Dec 6, 2016 at 3:55:31 pm

Latest Report: Dec 6, 2016 at 3:20 pm


Visibility: 2 mi

Pressure: 30.18 "Hg

Humidity: 100%

Dew Point: 41 °F

Location of DurhamLocation

Past Weather in Durham — Graph

°F

Durham Temperature Yesterday

Maximum temperature yesterday: 36 °F (at 1:50 pm)
Minimum temperature yesterday: 27 °F (at 6:20 am)
Average temperature yesterday: 31 °F

High & Low Weather Summary for the Past Weeks

 TemperatureHumidityPressure
High48 °F (Dec 1, 10:50 am)100% (Nov 21, 6:50 pm)30.51 "Hg (Nov 21, 6:50 pm)
Low25 °F (Nov 29, 7:50 am)71% (Nov 25, 1:50 pm)29.24 "Hg (Nov 22, 3:20 am)
Average38 °F93%30.25 "Hg
* Reported Nov 21 2:20 pm — Dec 6 2:50 pm, Durham, Weather by CustomWeather, © 2016

Note: Actual official high and low records may vary slightly from our data, if they occured in-between our weather recording intervals... More about our weather records

Advertising

Durham Weather History for the Previous 24 Hours

Scroll right to see more
 ConditionsComfort  
Time TempWeatherWind HumidityBarometerVisibility
2:50 pm
Tue, Dec 6
43 °FPassing clouds.2 mph100%30.18 "Hg4 mi
2:20 pm43 °FScattered clouds.3 mph100%30.18 "Hg4 mi
1:50 pm43 °FScattered clouds.2 mph100%30.18 "Hg4 mi
1:20 pm43 °FFog.2 mph100%30.21 "Hg3 mi
12:50 pm41 °FFog.5 mph100%30.21 "Hg3 mi
12:20 pm39 °FFog.2 mph100%30.24 "Hg2 mi
11:50 am39 °FFog.2 mph100%30.21 "Hg2 mi
11:20 am37 °FFog.5 mph100%30.21 "Hg2 mi
10:50 am34 °FFog.No wind100%30.24 "Hg2 mi
10:20 am32 °FIce fog.No wind100%30.24 "Hg2 mi
9:50 am32 °FIce fog.No wind100%30.24 "Hg2 mi
9:20 am32 °FIce fog.1 mph100%30.24 "Hg1 mi
8:50 am30 °FIce fog.1 mph100%30.24 "Hg1 mi
8:20 am30 °FIce fog.No wind100%30.24 "Hg0 mi
7:50 am30 °FIce fog.1 mph100%30.24 "Hg1 mi
6:50 am28 °FIce fog.No wind100%30.24 "Hg0 mi
6:20 am28 °FIce fog.1 mph100%30.24 "Hg0 mi
5:50 am28 °FIce fog.1 mph100%30.24 "Hg0 mi
5:20 am28 °FIce fog.1 mph100%30.24 "Hg0 mi
4:50 am30 °FIce fog.1 mph100%30.24 "Hg0 mi
3:50 am30 °FPassing clouds.1 mph100%30.24 "Hg6 mi
3:20 am34 °FPassing clouds.1 mph100%30.24 "Hg6 mi
2:50 am32 °FPassing clouds.3 mph100%30.24 "Hg6 mi
2:20 am32 °FPassing clouds.2 mph100%30.24 "Hg6 mi
1:50 am32 °FPassing clouds.3 mph100%30.27 "Hg6 mi
1:20 am32 °FPassing clouds.3 mph100%30.27 "Hg6 mi
12:50 am32 °FPassing clouds.3 mph100%30.27 "Hg6 mi
12:20 am34 °FPassing clouds.3 mph100%30.27 "Hg6 mi
11:50 pm
Mon, Dec 5
32 °FPassing clouds.3 mph100%30.24 "Hg6 mi
11:20 pm32 °FPassing clouds.2 mph100%30.27 "Hg6 mi
10:50 pm32 °FLight fog.3 mph100%30.27 "Hg6 mi
10:20 pm32 °FLight fog.2 mph100%30.24 "Hg6 mi
9:50 pm28 °FLight fog.1 mph100%30.24 "Hg4 mi
9:20 pm32 °FLight fog.1 mph100%30.24 "Hg4 mi
8:50 pm32 °FLight fog.2 mph100%30.27 "Hg4 mi
8:20 pm30 °FLight fog.No wind100%30.27 "Hg4 mi
7:50 pm30 °FLight fog.1 mph100%30.27 "Hg4 mi
7:20 pm32 °FLight fog.No wind100%30.27 "Hg4 mi
6:50 pm32 °FLight fog.No wind100%30.27 "Hg3 mi
6:20 pm30 °FClear.No wind100%30.27 "Hg4 mi
5:20 pm32 °FLight fog.No wind100%30.24 "Hg3 mi
4:50 pm32 °FClear.No wind100%30.24 "Hg4 mi
4:20 pm32 °FClear.No wind100%30.27 "Hg4 mi
3:50 pm32 °FClear.1 mph100%30.27 "Hg4 mi
3:20 pm34 °FClear.1 mph100%30.27 "Hg4 mi
Weather by CustomWeather, © 2016

See weather overviewHow to use our weather pages